Starlink 1871

operational
NORAD ID: 47157 Int'l Des: 2020-088 Owner: SPXS Country: US Constellation: starlink
LEOCIRCULARSTARLINK_TYPE

Über Starlink 1871

Beschreibung wird geladen...

Live-Position

3D-Globus wird geladen...

Nächste Überflüge

Höhenverlauf

Altitude vs Time

uPlot chart will show altitude changes over time

Zweizeiliger Elementsatz

1 47157U 20088AM 25351.31545965 .00005270 00000-0 37241-3 0 9990
2 47157 53.0549 311.4106 0001378 90.9011 269.2136 15.06402633279420
Epoch: 17. Dez. 2025 • Age: 5 hours

Aktueller Status

Höhe 552.5 km
Geschwindigkeit 7.59 km/s
Subsatellitenpunkt 51.68°N, 140.92°E
Startdatum 25. Nov. 2020
Alter 5 years
Typ internet

Technische Details

Klassifizierung Payload
Masse 260.00 kg
Trockenmasse 248.00 kg
Gesamtmasse 260.00 kg
Länge 0.20 m
Durchmesser 2.80 m
Spannweite 9.00 m
Form Box + pan
Hersteller SPXS
Bus-Typ Starlink
Phasenstatus In Orbit
Besitzer/Staat SPXS/US

Große Konstellationen

Loading constellations...